Time,TemperatureF,DewpointF,PressureIn,WindDirection,WindDirectionDegrees,WindSpeedMPH,WindSpeedGustMPH,Humidity,HourlyPrecipIn,Conditions,Clouds,dailyrainin,SoftwareType,DateUTC
2013-03-02 00:03:00,68.3,60.4,30.13,ESE,112,0.0,0.0,76,0.00,,,0.00,WeatherCatV1.11B39,2013-03-02 10:03:00,
2013-03-02 00:08:00,68.3,60.4,30.13,East,96,4.0,7.0,76,0.00,,,0.00,WeatherCatV1.11B39,2013-03-02 10:08:00,
2013-03-02 00:18:00,68.6,60.3,30.13,East,85,4.0,4.0,75,0.00,,,0.00,WeatherCatV1.11B39,2013-03-02 10:18:00,
2013-03-02 00:23:00,68.6,60.7,30.13,SE,124,3.0,4.0,76,0.00,,,0.00,WeatherCatV1.11B39,2013-03-02 10:23:00,
2013-03-02 00:28:00,68.5,61.0,30.13,ESE,120,1.0,6.0,77,0.00,,,0.00,WeatherCatV1.11B39,2013-03-02 10:28:00,
2013-03-02 00:33:00,68.6,60.7,30.13,East,99,1.0,4.0,76,0.00,,,0.00,WeatherCatV1.11B39,2013-03-02 10:33:00,
2013-03-02 00:38:00,68.8,60.5,30.13,East,91,3.0,6.0,75,0.00,,,0.00,WeatherCatV1.11B39,2013-03-02 10:38:00,
2013-03-02 00:43:00,68.9,60.6,30.13,ESE,108,1.0,5.0,75,0.00,,,0.00,WeatherCatV1.11B39,2013-03-02 10:43:00,
2013-03-02 00:48:00,68.9,61.0,30.13,ESE,118,0.0,4.0,76,0.00,,,0.00,WeatherCatV1.11B39,2013-03-02 10:48:00,
2013-03-02 00:53:00,68.9,61.4,30.13,East,95,5.0,5.0,77,0.00,,,0.00,WeatherCatV1.11B39,2013-03-02 10:53:00,
2013-03-02 00:58:00,68.8,61.3,30.12,NE,50,0.0,8.0,77,0.00,,,0.00,WeatherCatV1.11B39,2013-03-02 10:58:00,
2013-03-02 01:03:00,68.8,61.3,30.12,ESE,109,3.0,6.0,77,0.00,,,0.00,WeatherCatV1.11B39,2013-03-02 11:03:00,
2013-03-02 01:08:00,68.8,61.7,30.12,East,85,1.0,3.0,78,0.00,,,0.00,WeatherCatV1.11B39,2013-03-02 11:08:00,
2013-03-02 01:13:00,68.8,61.7,30.12,SE,139,3.0,4.0,78,0.00,,,0.00,WeatherCatV1.11B39,2013-03-02 11:13:00,
2013-03-02 01:18:00,68.6,61.5,30.12,NE,41,4.0,6.0,78,0.00,,,0.00,WeatherCatV1.11B39,2013-03-02 11:18:00,
2013-03-02 01:23:00,68.4,61.6,30.11,ENE,68,2.0,9.0,79,0.00,,,0.00,WeatherCatV1.11B39,2013-03-02 11:23:00,
2013-03-02 01:28:00,68.4,62.0,30.11,ESE,105,2.0,9.0,80,0.00,,,0.00,WeatherCatV1.11B39,2013-03-02 11:28:00,
2013-03-02 01:33:00,68.4,61.6,30.11,ENE,67,1.0,4.0,79,0.00,,,0.00,WeatherCatV1.11B39,2013-03-02 11:33:00,
2013-03-02 01:38:00,68.5,61.7,30.11,ENE,65,2.0,6.0,79,0.00,,,0.00,WeatherCatV1.11B39,2013-03-02 11:38:00,
2013-03-02 01:43:00,68.7,61.6,30.11,East,91,2.0,10.0,78,0.00,,,0.00,WeatherCatV1.11B39,2013-03-02 11:43:00,
2013-03-02 01:48:00,68.8,61.7,30.11,ENE,72,1.0,10.0,78,0.00,,,0.00,WeatherCatV1.11B39,2013-03-02 11:48:00,
2013-03-02 01:53:00,68.9,61.4,30.11,SE,132,4.0,7.0,77,0.00,,,0.00,WeatherCatV1.11B39,2013-03-02 11:53:00,
2013-03-02 01:58:00,68.8,61.7,30.11,ESE,121,1.0,5.0,78,0.00,,,0.00,WeatherCatV1.11B39,2013-03-02 11:58:00,
2013-03-02 02:03:00,68.9,61.4,30.10,ENE,61,5.0,8.0,77,0.00,,,0.00,WeatherCatV1.11B39,2013-03-02 12:03:00,
2013-03-02 02:08:00,68.9,61.4,30.10,ESE,116,5.0,9.0,77,0.00,,,0.00,WeatherCatV1.11B39,2013-03-02 12:08:00,
2013-03-02 02:13:00,69.0,61.5,30.10,SE,126,6.0,6.0,77,0.00,,,0.00,WeatherCatV1.11B39,2013-03-02 12:13:00,
2013-03-02 02:18:00,69.0,61.1,30.10,SE,146,5.0,12.0,76,0.00,,,0.00,WeatherCatV1.11B39,2013-03-02 12:18:00,
2013-03-02 02:23:00,69.0,61.1,30.09,ENE,66,5.0,5.0,76,0.00,,,0.00,WeatherCatV1.11B39,2013-03-02 12:23:00,
2013-03-02 02:28:00,69.0,61.1,30.09,SSW,199,1.0,4.0,76,0.00,,,0.00,WeatherCatV1.11B39,2013-03-02 12:28:00,
2013-03-02 02:33:00,68.9,61.0,30.10,East,85,4.0,7.0,76,0.00,,,0.00,WeatherCatV1.11B39,2013-03-02 12:33:00,
2013-03-02 02:38:00,68.8,60.9,30.09,ESE,122,4.0,4.0,76,0.00,,,0.00,WeatherCatV1.11B39,2013-03-02 12:38:00,
2013-03-02 02:43:00,68.7,60.8,30.09,East,95,1.0,3.0,76,0.00,,,0.00,WeatherCatV1.11B39,2013-03-02 12:43:00,
2013-03-02 02:48:00,68.6,61.1,30.09,ENE,70,4.0,6.0,77,0.00,,,0.00,WeatherCatV1.11B39,2013-03-02 12:48:00,
2013-03-02 02:53:00,68.6,61.1,30.09,East,98,3.0,6.0,77,0.00,,,0.00,WeatherCatV1.11B39,2013-03-02 12:53:00,
2013-03-02 02:58:00,68.8,60.9,30.08,East,90,5.0,7.0,76,0.00,,,0.00,WeatherCatV1.11B39,2013-03-02 12:58:00,
2013-03-02 03:03:00,68.8,60.5,30.08,East,93,2.0,3.0,75,0.00,,,0.00,WeatherCatV1.11B39,2013-03-02 13:03:00,
2013-03-02 03:08:00,68.8,59.8,30.08,SSE,153,0.0,6.0,73,0.00,,,0.00,WeatherCatV1.11B39,2013-03-02 13:08:00,
2013-03-02 03:13:00,69.0,60.0,30.08,SE,135,5.0,6.0,73,0.00,,,0.00,WeatherCatV1.11B39,2013-03-02 13:13:00,
2013-03-02 03:18:00,69.1,60.1,30.08,East,101,2.0,6.0,73,0.00,,,0.00,WeatherCatV1.11B39,2013-03-02 13:18:00,
2013-03-02 03:23:00,69.0,60.4,30.08,ESE,102,0.0,4.0,74,0.00,,,0.00,WeatherCatV1.11B39,2013-03-02 13:23:00,
2013-03-02 03:28:00,69.0,60.4,30.07,NE,53,1.0,7.0,74,0.00,,,0.00,WeatherCatV1.11B39,2013-03-02 13:28:00,
2013-03-02 03:33:00,69.0,60.4,30.07,ENE,58,3.0,6.0,74,0.00,,,0.00,WeatherCatV1.11B39,2013-03-02 13:33:00,
2013-03-02 03:38:00,69.0,60.4,30.07,East,85,3.0,6.0,74,0.00,,,0.00,WeatherCatV1.11B39,2013-03-02 13:38:00,
2013-03-02 03:43:00,69.0,60.4,30.07,NE,46,6.0,11.0,74,0.00,,,0.00,WeatherCatV1.11B39,2013-03-02 13:43:00,
2013-03-02 03:48:00,69.1,60.1,30.07,North,8,1.0,4.0,73,0.00,,,0.00,WeatherCatV1.11B39,2013-03-02 13:48:00,
2013-03-02 03:53:00,69.0,60.4,30.07,SSE,157,1.0,6.0,74,0.00,,,0.00,WeatherCatV1.11B39,2013-03-02 13:53:00,
2013-03-02 03:58:00,69.1,60.5,30.07,ENE,74,0.0,6.0,74,0.00,,,0.00,WeatherCatV1.11B39,2013-03-02 13:58:00,
2013-03-02 04:03:00,69.1,60.8,30.07,East,94,0.0,3.0,75,0.00,,,0.00,WeatherCatV1.11B39,2013-03-02 14:03:00,
2013-03-02 04:08:00,69.0,60.4,30.06,ENE,62,4.0,9.0,74,0.00,,,0.00,WeatherCatV1.11B39,2013-03-02 14:08:00,
2013-03-02 04:13:00,68.8,60.5,30.06,East,95,2.0,4.0,75,0.00,,,0.00,WeatherCatV1.11B39,2013-03-02 14:13:00,
2013-03-02 04:18:00,68.6,60.3,30.06,ENE,60,0.0,7.0,75,0.00,,,0.00,WeatherCatV1.11B39,2013-03-02 14:18:00,
2013-03-02 04:23:00,68.6,59.6,30.07,SSE,167,5.0,7.0,73,0.00,,,0.00,WeatherCatV1.11B39,2013-03-02 14:23:00,
2013-03-02 04:28:00,68.3,59.7,30.07,South,174,4.0,4.0,74,0.00,,,0.00,WeatherCatV1.11B39,2013-03-02 14:28:00,
2013-03-02 04:33:00,68.2,59.2,30.07,East,93,0.0,5.0,73,0.00,,,0.00,WeatherCatV1.11B39,2013-03-02 14:33:00,
2013-03-02 04:38:00,68.1,58.7,30.07,East,97,1.0,6.0,72,0.00,,,0.00,WeatherCatV1.11B39,2013-03-02 14:38:00,
2013-03-02 04:43:00,67.8,58.4,30.07,SSW,198,4.0,7.0,72,0.00,,,0.00,WeatherCatV1.11B39,2013-03-02 14:43:00,
2013-03-02 04:48:00,67.8,58.8,30.07,East,89,1.0,6.0,73,0.00,,,0.00,WeatherCatV1.11B39,2013-03-02 14:48:00,
2013-03-02 04:53:00,67.9,58.9,30.07,ESE,115,5.0,6.0,73,0.00,,,0.00,WeatherCatV1.11B39,2013-03-02 14:53:00,
2013-03-02 04:58:00,67.9,58.9,30.07,SE,124,2.0,2.0,73,0.00,,,0.00,WeatherCatV1.11B39,2013-03-02 14:58:00,
2013-03-02 05:03:00,68.1,59.1,30.08,SE,136,1.0,5.0,73,0.00,,,0.00,WeatherCatV1.11B39,2013-03-02 15:03:00,
2013-03-02 05:08:00,68.1,59.1,30.08,East,90,2.0,4.0,73,0.00,,,0.00,WeatherCatV1.11B39,2013-03-02 15:08:00,
2013-03-02 05:13:00,68.2,59.6,30.08,ESE,110,6.0,6.0,74,0.00,,,0.00,WeatherCatV1.11B39,2013-03-02 15:13:00,
2013-03-02 05:18:00,68.3,60.8,30.08,ESE,110,6.0,8.0,77,0.00,,,0.00,WeatherCatV1.11B39,2013-03-02 15:18:00,
2013-03-02 05:23:00,68.4,61.3,30.08,SW,221,1.0,1.0,78,0.00,,,0.00,WeatherCatV1.11B39,2013-03-02 15:23:00,
2013-03-02 05:28:00,68.3,61.2,30.08,ESE,112,1.0,2.0,78,0.00,,,0.00,WeatherCatV1.11B39,2013-03-02 15:28:00,
2013-03-02 05:33:00,68.3,61.2,30.08,East,88,2.0,4.0,78,0.00,,,0.00,WeatherCatV1.11B39,2013-03-02 15:33:00,
2013-03-02 05:38:00,68.3,61.5,30.08,East,99,2.0,9.0,79,0.00,,,0.00,WeatherCatV1.11B39,2013-03-02 15:38:00,
2013-03-02 05:43:00,68.2,61.8,30.08,SE,128,1.0,6.0,80,0.00,,,0.00,WeatherCatV1.11B39,2013-03-02 15:43:00,
2013-03-02 05:48:00,67.9,62.2,30.08,SSE,166,3.0,5.0,82,0.00,,,0.00,WeatherCatV1.11B39,2013-03-02 15:48:00,
2013-03-02 05:53:00,67.7,62.0,30.08,NE,47,3.0,3.0,82,0.00,,,0.00,WeatherCatV1.11B39,2013-03-02 15:53:00,
2013-03-02 05:58:00,67.5,60.7,30.09,SE,136,1.0,4.0,79,0.00,,,0.00,WeatherCatV1.11B39,2013-03-02 15:58:00,
2013-03-02 06:03:00,67.4,60.7,30.08,East,92,2.0,6.0,79,0.00,,,0.00,WeatherCatV1.11B39,2013-03-02 16:03:00,
2013-03-02 06:08:00,67.5,60.7,30.09,NNE,30,2.0,4.0,79,0.00,,,0.00,WeatherCatV1.11B39,2013-03-02 16:08:00,
2013-03-02 06:13:00,67.4,60.7,30.09,ENE,77,1.0,3.0,79,0.00,,,0.00,WeatherCatV1.11B39,2013-03-02 16:13:00,
2013-03-02 06:18:00,67.3,60.2,30.09,NE,39,5.0,5.0,78,0.00,,,0.00,WeatherCatV1.11B39,2013-03-02 16:18:00,
2013-03-02 06:23:00,67.5,59.7,30.09,NNE,17,2.0,4.0,76,0.00,,,0.00,WeatherCatV1.11B39,2013-03-02 16:23:00,
2013-03-02 06:28:00,67.4,59.2,30.09,South,191,2.0,4.0,75,0.00,,,0.00,WeatherCatV1.11B39,2013-03-02 16:28:00,
2013-03-02 06:33:00,67.3,58.3,30.09,East,86,1.0,5.0,73,0.00,,,0.00,WeatherCatV1.11B39,2013-03-02 16:33:00,
2013-03-02 06:38:00,67.3,58.7,30.09,ESE,121,1.0,3.0,74,0.00,,,0.00,WeatherCatV1.11B39,2013-03-02 16:38:00,
2013-03-02 06:43:00,67.2,58.6,30.09,ESE,115,0.0,4.0,74,0.00,,,0.00,WeatherCatV1.11B39,2013-03-02 16:43:00,
2013-03-02 06:48:00,67.1,58.5,30.09,East,84,2.0,4.0,74,0.00,,,0.00,WeatherCatV1.11B39,2013-03-02 16:48:00,
2013-03-02 06:53:00,67.1,58.1,30.09,East,86,2.0,5.0,73,0.00,,,0.00,WeatherCatV1.11B39,2013-03-02 16:53:00,
2013-03-02 06:58:00,67.1,58.1,30.09,ESE,108,3.0,4.0,73,0.00,,,0.00,WeatherCatV1.11B39,2013-03-02 16:58:00,
2013-03-02 07:03:00,67.3,58.0,30.10,East,84,3.0,3.0,72,0.00,,,0.00,WeatherCatV1.11B39,2013-03-02 17:03:00,
2013-03-02 07:08:00,67.5,57.4,30.10,East,82,1.0,7.0,70,0.00,,,0.00,WeatherCatV1.11B39,2013-03-02 17:08:00,
2013-03-02 07:13:00,67.4,57.7,30.10,East,101,1.0,5.0,71,0.00,,,0.00,WeatherCatV1.11B39,2013-03-02 17:13:00,
2013-03-02 07:18:00,67.6,57.9,30.11,East,94,1.0,5.0,71,0.00,,,0.00,WeatherCatV1.11B39,2013-03-02 17:18:00,
2013-03-02 07:23:00,67.7,57.9,30.11,NE,44,1.0,3.0,71,0.00,,,0.00,WeatherCatV1.11B39,2013-03-02 17:23:00,
2013-03-02 07:28:00,67.8,58.0,30.11,ESE,108,0.0,6.0,71,0.00,,,0.00,WeatherCatV1.11B39,2013-03-02 17:28:00,
2013-03-02 07:33:00,68.0,58.2,30.11,ESE,107,1.0,3.0,71,0.00,,,0.00,WeatherCatV1.11B39,2013-03-02 17:33:00,
2013-03-02 07:38:00,68.1,58.3,30.11,SSE,157,0.0,1.0,71,0.00,,,0.00,WeatherCatV1.11B39,2013-03-02 17:38:00,
2013-03-02 07:43:00,68.1,58.7,30.11,ESE,107,0.0,0.0,72,0.00,,,0.00,WeatherCatV1.11B39,2013-03-02 17:43:00,
2013-03-02 07:48:00,68.5,58.7,30.11,ESE,105,0.0,5.0,71,0.00,,,0.00,WeatherCatV1.11B39,2013-03-02 17:48:00,
2013-03-02 07:53:00,68.9,59.1,30.12,SE,142,2.0,3.0,71,0.00,,,0.00,WeatherCatV1.11B39,2013-03-02 17:53:00,
2013-03-02 07:58:00,68.7,58.9,30.12,ENE,68,1.0,4.0,71,0.00,,,0.00,WeatherCatV1.11B39,2013-03-02 17:58:00,
2013-03-02 08:03:00,68.6,58.4,30.12,East,82,2.0,10.0,70,0.00,,,0.00,WeatherCatV1.11B39,2013-03-02 18:03:00,
2013-03-02 08:08:00,68.6,58.8,30.12,ESE,103,0.0,1.0,71,0.00,,,0.00,WeatherCatV1.11B39,2013-03-02 18:08:00,
2013-03-02 08:13:00,68.8,58.6,30.12,ESE,122,3.0,5.0,70,0.00,,,0.00,WeatherCatV1.11B39,2013-03-02 18:13:00,
2013-03-02 08:18:00,68.9,59.5,30.12,SE,129,2.0,4.0,72,0.00,,,0.00,WeatherCatV1.11B39,2013-03-02 18:18:00,
2013-03-02 08:23:00,69.0,59.6,30.12,ESE,110,1.0,4.0,72,0.00,,,0.00,WeatherCatV1.11B39,2013-03-02 18:23:00,
2013-03-02 08:28:00,69.1,60.5,30.12,East,89,2.0,2.0,74,0.00,,,0.00,WeatherCatV1.11B39,2013-03-02 18:28:00,
2013-03-02 08:33:00,69.1,60.5,30.13,East,98,0.0,1.0,74,0.00,,,0.00,WeatherCatV1.11B39,2013-03-02 18:33:00,
2013-03-02 08:38:00,69.3,60.6,30.13,East,101,2.0,5.0,74,0.00,,,0.00,WeatherCatV1.11B39,2013-03-02 18:38:00,
2013-03-02 08:43:00,69.6,61.3,30.13,NE,51,3.0,3.0,75,0.00,,,0.00,WeatherCatV1.11B39,2013-03-02 18:43:00,
2013-03-02 08:53:00,70.1,61.8,30.13,ENE,60,2.0,10.0,75,0.00,,,0.00,WeatherCatV1.11B39,2013-03-02 18:53:00,
2013-03-02 08:58:00,70.2,60.7,30.13,ESE,117,5.0,15.0,72,0.00,,,0.00,WeatherCatV1.11B39,2013-03-02 18:58:00,
2013-03-02 09:08:00,70.2,61.1,30.13,East,88,7.0,9.0,73,0.00,,,0.00,WeatherCatV1.11B39,2013-03-02 19:08:00,
2013-03-02 09:13:00,70.2,61.5,30.13,East,101,6.0,6.0,74,0.00,,,0.00,WeatherCatV1.11B39,2013-03-02 19:13:00,
2013-03-02 09:23:00,70.9,62.6,30.13,SE,124,2.0,6.0,75,0.00,,,0.00,WeatherCatV1.11B39,2013-03-02 19:23:00,
2013-03-02 09:28:00,71.2,62.1,30.14,ESE,114,1.0,5.0,73,0.00,,,0.00,WeatherCatV1.11B39,2013-03-02 19:28:00,
2013-03-02 09:33:00,71.3,61.4,30.14,SE,134,5.0,7.0,71,0.00,,,0.00,WeatherCatV1.11B39,2013-03-02 19:33:00,
2013-03-02 09:38:00,71.1,60.8,30.14,WNW,300,3.0,11.0,70,0.00,,,0.00,WeatherCatV1.11B39,2013-03-02 19:38:00,
2013-03-02 09:43:00,71.1,61.2,30.14,SE,141,6.0,8.0,71,0.00,,,0.00,WeatherCatV1.11B39,2013-03-02 19:43:00,
2013-03-02 09:48:00,71.4,61.5,30.14,WNW,287,6.0,10.0,71,0.00,,,0.00,WeatherCatV1.11B39,2013-03-02 19:48:00,
2013-03-02 09:53:00,71.4,61.1,30.14,SE,139,4.0,6.0,70,0.00,,,0.00,WeatherCatV1.11B39,2013-03-02 19:53:00,
2013-03-02 09:58:00,71.4,61.5,30.14,East,99,3.0,3.0,71,0.00,,,0.00,WeatherCatV1.11B39,2013-03-02 19:58:00,
2013-03-02 10:03:00,71.5,61.2,30.14,ENE,72,7.0,9.0,70,0.00,,,0.00,WeatherCatV1.11B39,2013-03-02 20:03:00,
2013-03-02 10:08:00,71.6,60.9,30.14,East,85,4.0,11.0,69,0.00,,,0.00,WeatherCatV1.11B39,2013-03-02 20:08:00,
2013-03-02 10:13:00,71.5,61.2,30.14,East,81,5.0,14.0,70,0.00,,,0.00,WeatherCatV1.11B39,2013-03-02 20:13:00,
2013-03-02 10:18:00,71.4,61.1,30.14,NNE,27,5.0,9.0,70,0.00,,,0.00,WeatherCatV1.11B39,2013-03-02 20:18:00,
2013-03-02 10:23:00,71.4,60.7,30.14,East,98,2.0,11.0,69,0.00,,,0.00,WeatherCatV1.11B39,2013-03-02 20:23:00,
2013-03-02 10:28:00,72.2,61.4,30.14,SE,141,4.0,7.0,69,0.00,,,0.00,WeatherCatV1.11B39,2013-03-02 20:28:00,
2013-03-02 10:33:00,72.8,60.8,30.14,East,79,8.0,8.0,66,0.00,,,0.00,WeatherCatV1.11B39,2013-03-02 20:33:00,
2013-03-02 10:38:00,72.6,60.6,30.14,SE,134,4.0,13.0,66,0.00,,,0.00,WeatherCatV1.11B39,2013-03-02 20:38:00,
2013-03-02 10:43:00,73.0,61.0,30.15,NE,51,3.0,8.0,66,0.00,,,0.00,WeatherCatV1.11B39,2013-03-02 20:43:00,
2013-03-02 10:48:00,72.6,60.6,30.14,ESE,112,4.0,10.0,66,0.00,,,0.00,WeatherCatV1.11B39,2013-03-02 20:48:00,
2013-03-02 10:53:00,72.1,59.7,30.14,ENE,69,9.0,11.0,65,0.00,,,0.00,WeatherCatV1.11B39,2013-03-02 20:53:00,
2013-03-02 10:58:00,71.9,59.5,30.14,SE,131,4.0,9.0,65,0.00,,,0.00,WeatherCatV1.11B39,2013-03-02 20:58:00,
2013-03-02 11:03:00,71.9,59.5,30.14,SSE,150,1.0,7.0,65,0.00,,,0.00,WeatherCatV1.11B39,2013-03-02 21:03:00,
2013-03-02 11:08:00,71.9,59.9,30.13,NE,36,2.0,13.0,66,0.00,,,0.00,WeatherCatV1.11B39,2013-03-02 21:08:00,
2013-03-02 11:13:00,72.3,59.9,30.13,NE,34,10.0,14.0,65,0.00,,,0.00,WeatherCatV1.11B39,2013-03-02 21:13:00,
2013-03-02 11:18:00,72.3,60.3,30.13,SE,125,3.0,10.0,66,0.00,,,0.00,WeatherCatV1.11B39,2013-03-02 21:18:00,
2013-03-02 11:23:00,72.2,60.2,30.13,ENE,66,7.0,9.0,66,0.00,,,0.00,WeatherCatV1.11B39,2013-03-02 21:23:00,
2013-03-02 11:28:00,72.0,59.1,30.13,ESE,107,2.0,9.0,64,0.00,,,0.00,WeatherCatV1.11B39,2013-03-02 21:28:00,
2013-03-02 11:33:00,72.0,59.6,30.13,East,85,3.0,7.0,65,0.00,,,0.00,WeatherCatV1.11B39,2013-03-02 21:33:00,
2013-03-02 11:38:00,72.0,59.6,30.12,NE,49,4.0,13.0,65,0.00,,,0.00,WeatherCatV1.11B39,2013-03-02 21:38:00,
2013-03-02 11:43:00,72.1,60.9,30.12,SE,126,1.0,7.0,68,0.00,,,0.00,WeatherCatV1.11B39,2013-03-02 21:43:00,
2013-03-02 11:48:00,72.1,60.5,30.12,NE,41,8.0,9.0,67,0.00,,,0.00,WeatherCatV1.11B39,2013-03-02 21:48:00,
2013-03-02 11:53:00,72.2,60.2,30.12,SE,136,3.0,11.0,66,0.00,,,0.00,WeatherCatV1.11B39,2013-03-02 21:53:00,
2013-03-02 11:58:00,73.4,61.3,30.12,NE,46,3.0,11.0,66,0.00,,,0.00,WeatherCatV1.11B39,2013-03-02 21:58:00,
2013-03-02 12:03:00,74.0,61.0,30.12,NE,34,6.0,9.0,64,0.00,,,0.00,WeatherCatV1.11B39,2013-03-02 22:03:00,
2013-03-02 12:08:00,73.8,60.4,30.11,East,83,5.0,7.0,63,0.00,,,0.00,WeatherCatV1.11B39,2013-03-02 22:08:00,
2013-03-02 12:18:00,73.0,60.1,30.11,NE,55,3.0,6.0,64,0.00,,,0.00,WeatherCatV1.11B39,2013-03-02 22:18:00,
2013-03-02 12:23:00,72.7,59.4,30.11,East,91,6.0,13.0,63,0.00,,,0.00,WeatherCatV1.11B39,2013-03-02 22:23:00,
2013-03-02 12:28:00,72.6,59.7,30.11,ENE,76,3.0,8.0,64,0.00,,,0.00,WeatherCatV1.11B39,2013-03-02 22:28:00,
2013-03-02 12:33:00,72.4,60.0,30.11,ESE,108,3.0,10.0,65,0.00,,,0.00,WeatherCatV1.11B39,2013-03-02 22:33:00,
2013-03-02 12:38:00,72.5,60.0,30.11,East,96,2.0,5.0,65,0.00,,,0.00,WeatherCatV1.11B39,2013-03-02 22:38:00,
2013-03-02 12:43:00,72.4,60.4,30.11,ESE,109,2.0,6.0,66,0.00,,,0.00,WeatherCatV1.11B39,2013-03-02 22:43:00,
2013-03-02 12:48:00,72.4,61.2,30.10,East,96,0.0,3.0,68,0.00,,,0.00,WeatherCatV1.11B39,2013-03-02 22:48:00,
2013-03-02 12:53:00,72.3,60.7,30.10,East,100,2.0,8.0,67,0.00,,,0.00,WeatherCatV1.11B39,2013-03-02 22:53:00,
2013-03-02 12:58:00,72.3,62.0,30.10,SE,125,5.0,5.0,70,0.00,,,0.00,WeatherCatV1.11B39,2013-03-02 22:58:00,
2013-03-02 13:03:00,73.1,61.5,30.09,East,82,3.0,14.0,67,0.00,,,0.00,WeatherCatV1.11B39,2013-03-02 23:03:00,
2013-03-02 13:08:00,73.9,62.2,30.09,ENE,77,3.0,9.0,67,0.00,,,0.00,WeatherCatV1.11B39,2013-03-02 23:08:00,
2013-03-02 13:13:00,74.4,62.3,30.09,NE,34,2.0,11.0,66,0.00,,,0.00,WeatherCatV1.11B39,2013-03-02 23:13:00,
2013-03-02 13:18:00,74.3,60.0,30.09,East,85,4.0,16.0,61,0.00,,,0.00,WeatherCatV1.11B39,2013-03-02 23:18:00,
2013-03-02 13:23:00,74.0,59.2,30.08,SSW,210,2.0,8.0,60,0.00,,,0.00,WeatherCatV1.11B39,2013-03-02 23:23:00,
2013-03-02 13:28:00,74.1,60.2,30.08,East,81,7.0,14.0,62,0.00,,,0.00,WeatherCatV1.11B39,2013-03-02 23:28:00,
2013-03-02 13:33:00,73.8,60.4,30.08,ESE,115,3.0,12.0,63,0.00,,,0.00,WeatherCatV1.11B39,2013-03-02 23:33:00,
2013-03-02 13:38:00,73.4,59.6,30.08,SE,126,4.0,14.0,62,0.00,,,0.00,WeatherCatV1.11B39,2013-03-02 23:38:00,
2013-03-02 13:43:00,73.8,61.3,30.08,NE,46,7.0,11.0,65,0.00,,,0.00,WeatherCatV1.11B39,2013-03-02 23:43:00,
2013-03-02 13:48:00,73.9,60.9,30.08,East,95,4.0,8.0,64,0.00,,,0.00,WeatherCatV1.11B39,2013-03-02 23:48:00,
2013-03-02 13:53:00,74.2,60.8,30.07,East,94,1.0,6.0,63,0.00,,,0.00,WeatherCatV1.11B39,2013-03-02 23:53:00,
2013-03-02 13:58:00,74.2,60.8,30.07,ESE,105,7.0,11.0,63,0.00,,,0.00,WeatherCatV1.11B39,2013-03-02 23:58:00,
2013-03-02 14:03:00,73.7,60.3,30.07,East,94,6.0,12.0,63,0.00,,,0.00,WeatherCatV1.11B39,2013-03-03 00:03:00,
2013-03-02 14:08:00,73.1,60.2,30.07,SE,133,5.0,12.0,64,0.00,,,0.00,WeatherCatV1.11B39,2013-03-03 00:08:00,
2013-03-02 14:13:00,72.6,60.6,30.07,East,92,4.0,10.0,66,0.00,,,0.00,WeatherCatV1.11B39,2013-03-03 00:13:00,
2013-03-02 14:18:00,72.6,61.0,30.07,ESE,116,1.0,4.0,67,0.00,,,0.00,WeatherCatV1.11B39,2013-03-03 00:18:00,
2013-03-02 14:23:00,72.8,61.2,30.07,SE,128,6.0,8.0,67,0.00,,,0.00,WeatherCatV1.11B39,2013-03-03 00:23:00,
2013-03-02 14:28:00,73.6,62.4,30.06,ENE,70,2.0,4.0,68,0.00,,,0.00,WeatherCatV1.11B39,2013-03-03 00:28:00,
2013-03-02 14:33:00,74.3,62.2,30.06,East,92,3.0,7.0,66,0.00,,,0.00,WeatherCatV1.11B39,2013-03-03 00:33:00,
2013-03-02 14:38:00,73.8,61.3,30.06,East,98,1.0,13.0,65,0.00,,,0.00,WeatherCatV1.11B39,2013-03-03 00:38:00,
2013-03-02 14:43:00,73.1,61.9,30.06,ESE,103,3.0,12.0,68,0.00,,,0.00,WeatherCatV1.11B39,2013-03-03 00:43:00,
2013-03-02 14:48:00,72.7,63.5,30.06,ENE,61,6.0,9.0,73,0.00,,,0.00,WeatherCatV1.11B39,2013-03-03 00:48:00,
2013-03-02 14:53:00,72.6,63.8,30.06,East,92,1.0,3.0,74,0.00,,,0.00,WeatherCatV1.11B39,2013-03-03 00:53:00,
2013-03-02 14:58:00,72.2,63.8,30.06,ENE,64,5.0,13.0,75,0.00,,,0.00,WeatherCatV1.11B39,2013-03-03 00:58:00,
2013-03-02 15:03:00,71.6,63.2,30.06,ENE,77,3.0,12.0,75,0.00,,,0.00,WeatherCatV1.11B39,2013-03-03 01:03:00,
2013-03-02 15:08:00,71.8,64.2,30.06,SE,124,7.0,8.0,77,0.00,,,0.00,WeatherCatV1.11B39,2013-03-03 01:08:00,
2013-03-02 15:13:00,71.9,63.5,30.06,ENE,71,4.0,9.0,75,0.00,,,0.00,WeatherCatV1.11B39,2013-03-03 01:13:00,
2013-03-02 15:18:00,71.5,63.1,30.05,East,92,5.0,8.0,75,0.00,,,0.00,WeatherCatV1.11B39,2013-03-03 01:18:00,
2013-03-02 15:23:00,71.9,63.9,30.06,SE,141,0.0,4.0,76,0.00,,,0.00,WeatherCatV1.11B39,2013-03-03 01:23:00,
2013-03-02 15:28:00,72.9,59.5,30.06,West,266,3.0,10.0,63,0.00,,,0.00,WeatherCatV1.11B39,2013-03-03 01:28:00,
2013-03-02 15:33:00,72.6,61.0,30.06,East,94,3.0,6.0,67,0.00,,,0.00,WeatherCatV1.11B39,2013-03-03 01:33:00,
2013-03-02 15:38:00,72.6,61.4,30.06,East,80,2.0,5.0,68,0.00,,,0.00,WeatherCatV1.11B39,2013-03-03 01:38:00,
2013-03-02 15:43:00,72.9,60.9,30.06,ESE,115,1.0,8.0,66,0.00,,,0.00,WeatherCatV1.11B39,2013-03-03 01:43:00,
2013-03-02 15:48:00,72.6,59.7,30.05,SE,131,1.0,5.0,64,0.00,,,0.00,WeatherCatV1.11B39,2013-03-03 01:48:00,
2013-03-02 15:53:00,72.5,59.6,30.05,East,100,1.0,3.0,64,0.00,,,0.00,WeatherCatV1.11B39,2013-03-03 01:53:00,
2013-03-02 15:58:00,72.2,59.3,30.06,NE,36,5.0,7.0,64,0.00,,,0.00,WeatherCatV1.11B39,2013-03-03 01:58:00,
2013-03-02 16:03:00,72.2,60.2,30.06,East,96,1.0,5.0,66,0.00,,,0.00,WeatherCatV1.11B39,2013-03-03 02:03:00,
2013-03-02 16:08:00,72.0,60.0,30.06,SE,128,2.0,3.0,66,0.00,,,0.00,WeatherCatV1.11B39,2013-03-03 02:08:00,
2013-03-02 16:13:00,71.9,59.5,30.05,East,83,2.0,3.0,65,0.00,,,0.00,WeatherCatV1.11B39,2013-03-03 02:13:00,
2013-03-02 16:18:00,72.1,60.5,30.05,East,95,0.0,4.0,67,0.00,,,0.00,WeatherCatV1.11B39,2013-03-03 02:18:00,
2013-03-02 16:23:00,72.2,61.0,30.06,ENE,73,3.0,11.0,68,0.00,,,0.00,WeatherCatV1.11B39,2013-03-03 02:23:00,
2013-03-02 16:28:00,71.9,60.3,30.06,NNE,33,2.0,7.0,67,0.00,,,0.00,WeatherCatV1.11B39,2013-03-03 02:28:00,
2013-03-02 16:33:00,71.6,61.3,30.06,ENE,74,2.0,9.0,70,0.00,,,0.00,WeatherCatV1.11B39,2013-03-03 02:33:00,
2013-03-02 16:38:00,71.6,61.7,30.05,NNE,21,4.0,5.0,71,0.00,,,0.00,WeatherCatV1.11B39,2013-03-03 02:38:00,
2013-03-02 16:43:00,71.6,62.1,30.06,NE,46,3.0,4.0,72,0.00,,,0.00,WeatherCatV1.11B39,2013-03-03 02:43:00,
2013-03-02 16:48:00,71.4,61.9,30.06,East,98,7.0,10.0,72,0.00,,,0.00,WeatherCatV1.11B39,2013-03-03 02:48:00,
2013-03-02 16:53:00,71.2,61.3,30.06,ENE,66,2.0,9.0,71,0.00,,,0.00,WeatherCatV1.11B39,2013-03-03 02:53:00,
2013-03-02 16:58:00,70.9,61.4,30.06,East,89,2.0,3.0,72,0.00,,,0.00,WeatherCatV1.11B39,2013-03-03 02:58:00,
2013-03-02 17:03:00,70.7,62.0,30.06,ESE,115,1.0,5.0,74,0.00,,,0.00,WeatherCatV1.11B39,2013-03-03 03:03:00,
2013-03-02 17:08:00,70.6,62.3,30.06,East,97,0.0,5.0,75,0.00,,,0.00,WeatherCatV1.11B39,2013-03-03 03:08:00,
2013-03-02 17:13:00,70.6,62.7,30.06,ENE,57,6.0,6.0,76,0.00,,,0.00,WeatherCatV1.11B39,2013-03-03 03:13:00,
2013-03-02 17:18:00,70.8,62.5,30.07,ESE,104,2.0,6.0,75,0.00,,,0.00,WeatherCatV1.11B39,2013-03-03 03:18:00,
2013-03-02 17:23:00,70.9,62.6,30.07,NE,50,3.0,4.0,75,0.00,,,0.00,WeatherCatV1.11B39,2013-03-03 03:23:00,
2013-03-02 17:28:00,70.5,62.2,30.07,NE,52,4.0,4.0,75,0.00,,,0.00,WeatherCatV1.11B39,2013-03-03 03:28:00,
2013-03-02 17:33:00,70.3,62.0,30.07,East,96,1.0,4.0,75,0.00,,,0.00,WeatherCatV1.11B39,2013-03-03 03:33:00,
2013-03-02 17:38:00,70.3,62.4,30.07,East,82,2.0,6.0,76,0.00,,,0.00,WeatherCatV1.11B39,2013-03-03 03:38:00,
2013-03-02 17:43:00,70.4,62.5,30.07,ESE,122,1.0,5.0,76,0.00,,,0.00,WeatherCatV1.11B39,2013-03-03 03:43:00,
2013-03-02 17:48:00,70.5,62.6,30.08,ESE,118,0.0,0.0,76,0.00,,,0.00,WeatherCatV1.11B39,2013-03-03 03:48:00,
2013-03-02 17:53:00,70.5,62.9,30.08,East,89,0.0,0.0,77,0.00,,,0.00,WeatherCatV1.11B39,2013-03-03 03:53:00,
2013-03-02 17:58:00,70.4,61.7,30.08,ESE,106,3.0,4.0,74,0.00,,,0.00,WeatherCatV1.11B39,2013-03-03 03:58:00,
2013-03-02 18:03:00,70.3,61.6,30.08,East,101,3.0,3.0,74,0.00,,,0.00,WeatherCatV1.11B39,2013-03-03 04:03:00,
2013-03-02 18:08:00,70.1,61.4,30.08,ESE,113,0.0,2.0,74,0.00,,,0.00,WeatherCatV1.11B39,2013-03-03 04:08:00,
2013-03-02 18:13:00,70.1,61.0,30.09,East,94,2.0,4.0,73,0.00,,,0.00,WeatherCatV1.11B39,2013-03-03 04:13:00,
2013-03-02 18:18:00,70.0,61.3,30.09,ESE,110,0.0,0.0,74,0.00,,,0.00,WeatherCatV1.11B39,2013-03-03 04:18:00,
2013-03-02 18:23:00,69.9,61.6,30.09,ESE,104,2.0,4.0,75,0.00,,,0.00,WeatherCatV1.11B39,2013-03-03 04:23:00,
2013-03-02 18:28:00,69.9,62.0,30.10,East,101,0.0,0.0,76,0.00,,,0.00,WeatherCatV1.11B39,2013-03-03 04:28:00,
2013-03-02 18:33:00,69.9,62.0,30.10,ENE,57,3.0,5.0,76,0.00,,,0.00,WeatherCatV1.11B39,2013-03-03 04:33:00,
2013-03-02 18:38:00,69.9,62.0,30.10,East,85,2.0,2.0,76,0.00,,,0.00,WeatherCatV1.11B39,2013-03-03 04:38:00,
2013-03-02 18:43:00,69.8,61.9,30.10,ESE,104,0.0,0.0,76,0.00,,,0.00,WeatherCatV1.11B39,2013-03-03 04:43:00,
2013-03-02 18:48:00,69.7,62.2,30.10,NE,39,0.0,0.0,77,0.00,,,0.00,WeatherCatV1.11B39,2013-03-03 04:48:00,
2013-03-02 18:53:00,69.7,62.2,30.11,NNW,342,1.0,2.0,77,0.00,,,0.00,WeatherCatV1.11B39,2013-03-03 04:53:00,
2013-03-02 18:58:00,69.7,62.2,30.11,NE,49,1.0,2.0,77,0.00,,,0.00,WeatherCatV1.11B39,2013-03-03 04:58:00,
2013-03-02 19:03:00,69.7,62.2,30.11,East,79,0.0,0.0,77,0.00,,,0.00,WeatherCatV1.11B39,2013-03-03 05:03:00,
2013-03-02 19:08:00,69.7,61.8,30.11,SE,134,0.0,2.0,76,0.00,,,0.00,WeatherCatV1.11B39,2013-03-03 05:08:00,
2013-03-02 19:13:00,69.7,61.4,30.11,East,82,3.0,5.0,75,0.00,,,0.00,WeatherCatV1.11B39,2013-03-03 05:13:00,
2013-03-02 19:18:00,69.6,61.3,30.12,East,95,4.0,4.0,75,0.00,,,0.00,WeatherCatV1.11B39,2013-03-03 05:18:00,
2013-03-02 19:23:00,69.4,61.1,30.12,East,81,0.0,3.0,75,0.00,,,0.00,WeatherCatV1.11B39,2013-03-03 05:23:00,
2013-03-02 19:28:00,69.1,60.8,30.12,East,94,0.0,0.0,75,0.00,,,0.00,WeatherCatV1.11B39,2013-03-03 05:28:00,
2013-03-02 19:33:00,69.0,61.1,30.12,East,95,0.0,0.0,76,0.00,,,0.00,WeatherCatV1.11B39,2013-03-03 05:33:00,
2013-03-02 19:38:00,68.7,61.2,30.13,ESE,116,0.0,0.0,77,0.00,,,0.00,WeatherCatV1.11B39,2013-03-03 05:38:00,
2013-03-02 19:43:00,68.5,60.6,30.13,East,85,1.0,5.0,76,0.00,,,0.00,WeatherCatV1.11B39,2013-03-03 05:43:00,
2013-03-02 19:53:00,68.8,60.5,30.13,ESE,110,1.0,5.0,75,0.00,,,0.00,WeatherCatV1.11B39,2013-03-03 05:53:00,
2013-03-02 19:58:00,68.7,60.4,30.13,East,89,5.0,5.0,75,0.00,,,0.00,WeatherCatV1.11B39,2013-03-03 05:58:00,
2013-03-02 20:03:00,68.7,60.4,30.13,East,101,0.0,3.0,75,0.00,,,0.00,WeatherCatV1.11B39,2013-03-03 06:03:00,
2013-03-02 20:08:00,68.5,60.6,30.13,ESE,109,0.0,0.0,76,0.00,,,0.00,WeatherCatV1.11B39,2013-03-03 06:08:00,
2013-03-02 20:13:00,68.3,60.4,30.14,East,98,0.0,0.0,76,0.00,,,0.00,WeatherCatV1.11B39,2013-03-03 06:13:00,
2013-03-02 20:23:00,67.9,60.8,30.14,East,101,0.0,0.0,78,0.00,,,0.00,WeatherCatV1.11B39,2013-03-03 06:23:00,
2013-03-02 20:33:00,67.5,60.7,30.14,East,96,0.0,0.0,79,0.00,,,0.00,WeatherCatV1.11B39,2013-03-03 06:33:00,
2013-03-02 20:38:00,67.3,60.6,30.14,East,96,0.0,0.0,79,0.00,,,0.00,WeatherCatV1.11B39,2013-03-03 06:38:00,
2013-03-02 20:43:00,67.2,60.8,30.15,SSE,161,0.0,0.0,80,0.00,,,0.00,WeatherCatV1.11B39,2013-03-03 06:43:00,
2013-03-02 20:48:00,67.2,60.8,30.15,ESE,122,0.0,0.0,80,0.00,,,0.00,WeatherCatV1.11B39,2013-03-03 06:48:00,
2013-03-02 20:53:00,67.3,60.6,30.15,East,97,2.0,4.0,79,0.00,,,0.00,WeatherCatV1.11B39,2013-03-03 06:53:00,
2013-03-02 20:58:00,67.5,60.7,30.15,East,89,0.0,1.0,79,0.00,,,0.00,WeatherCatV1.11B39,2013-03-03 06:58:00,
2013-03-02 21:03:00,67.6,60.5,30.15,SE,126,0.0,0.0,78,0.00,,,0.00,WeatherCatV1.11B39,2013-03-03 07:03:00,
2013-03-02 21:08:00,67.8,60.3,30.15,East,81,0.0,2.0,77,0.00,,,0.00,WeatherCatV1.11B39,2013-03-03 07:08:00,
2013-03-02 21:13:00,67.7,59.9,30.15,ENE,70,0.0,0.0,76,0.00,,,0.00,WeatherCatV1.11B39,2013-03-03 07:13:00,
2013-03-02 21:18:00,67.5,58.9,30.15,East,94,1.0,1.0,74,0.00,,,0.00,WeatherCatV1.11B39,2013-03-03 07:18:00,
2013-03-02 21:23:00,67.3,58.7,30.15,SE,127,0.0,3.0,74,0.00,,,0.00,WeatherCatV1.11B39,2013-03-03 07:23:00,
2013-03-02 21:28:00,67.1,58.1,30.15,SE,127,0.0,0.0,73,0.00,,,0.00,WeatherCatV1.11B39,2013-03-03 07:28:00,
2013-03-02 21:33:00,66.7,57.4,30.15,SE,130,0.0,1.0,72,0.00,,,0.00,WeatherCatV1.11B39,2013-03-03 07:33:00,
2013-03-02 21:38:00,66.3,57.0,30.15,SE,142,0.0,1.0,72,0.00,,,0.00,WeatherCatV1.11B39,2013-03-03 07:38:00,
2013-03-02 21:43:00,65.9,57.0,30.15,SE,141,0.0,1.0,73,0.00,,,0.00,WeatherCatV1.11B39,2013-03-03 07:43:00,
2013-03-02 21:48:00,65.9,56.6,30.15,East,98,0.0,0.0,72,0.00,,,0.00,WeatherCatV1.11B39,2013-03-03 07:48:00,
2013-03-02 21:53:00,66.1,56.8,30.15,ESE,105,0.0,1.0,72,0.00,,,0.00,WeatherCatV1.11B39,2013-03-03 07:53:00,
2013-03-02 21:58:00,66.4,57.1,30.16,East,94,0.0,0.0,72,0.00,,,0.00,WeatherCatV1.11B39,2013-03-03 07:58:00,
2013-03-02 22:03:00,66.6,57.3,30.16,East,94,0.0,0.0,72,0.00,,,0.00,WeatherCatV1.11B39,2013-03-03 08:03:00,
2013-03-02 22:08:00,66.7,57.8,30.16,East,101,0.0,0.0,73,0.00,,,0.00,WeatherCatV1.11B39,2013-03-03 08:08:00,
2013-03-02 22:13:00,66.7,58.1,30.16,East,85,0.0,1.0,74,0.00,,,0.00,WeatherCatV1.11B39,2013-03-03 08:13:00,
2013-03-02 22:18:00,67.0,58.4,30.16,ESE,115,0.0,1.0,74,0.00,,,0.00,WeatherCatV1.11B39,2013-03-03 08:18:00,
2013-03-02 22:23:00,67.4,58.8,30.16,West,270,0.0,1.0,74,0.00,,,0.00,WeatherCatV1.11B39,2013-03-03 08:23:00,
2013-03-02 22:28:00,67.5,58.9,30.16,SSW,192,0.0,1.0,74,0.00,,,0.00,WeatherCatV1.11B39,2013-03-03 08:28:00,
2013-03-02 22:33:00,67.8,59.2,30.16,ESE,103,0.0,1.0,74,0.00,,,0.00,WeatherCatV1.11B39,2013-03-03 08:33:00,
2013-03-02 22:38:00,68.1,59.5,30.16,ESE,120,4.0,6.0,74,0.00,,,0.00,WeatherCatV1.11B39,2013-03-03 08:38:00,
2013-03-02 22:48:00,68.2,60.0,30.16,East,90,0.0,0.0,75,0.00,,,0.00,WeatherCatV1.11B39,2013-03-03 08:48:00,
2013-03-02 22:53:00,68.1,60.2,30.16,SE,146,0.0,0.0,76,0.00,,,0.00,WeatherCatV1.11B39,2013-03-03 08:53:00,
2013-03-02 22:58:00,67.9,60.4,30.17,East,92,0.0,0.0,77,0.00,,,0.00,WeatherCatV1.11B39,2013-03-03 08:58:00,
2013-03-02 23:03:00,67.8,60.3,30.17,East,98,0.0,0.0,77,0.00,,,0.00,WeatherCatV1.11B39,2013-03-03 09:03:00,
2013-03-02 23:08:00,67.7,60.6,30.17,East,98,0.0,0.0,78,0.00,,,0.00,WeatherCatV1.11B39,2013-03-03 09:08:00,
2013-03-02 23:13:00,67.5,60.4,30.16,East,98,0.0,0.0,78,0.00,,,0.00,WeatherCatV1.11B39,2013-03-03 09:13:00,
2013-03-02 23:18:00,67.3,60.6,30.16,East,85,0.0,0.0,79,0.00,,,0.00,WeatherCatV1.11B39,2013-03-03 09:18:00,
2013-03-02 23:23:00,67.0,60.6,30.16,South,179,0.0,0.0,80,0.00,,,0.00,WeatherCatV1.11B39,2013-03-03 09:23:00,
2013-03-02 23:33:00,66.6,60.9,30.15,SSE,153,0.0,0.0,82,0.00,,,0.00,WeatherCatV1.11B39,2013-03-03 09:33:00,
2013-03-02 23:38:00,66.8,60.8,30.15,East,93,0.0,0.0,81,0.00,,,0.00,WeatherCatV1.11B39,2013-03-03 09:38:00,
2013-03-02 23:43:00,66.9,60.2,30.15,ENE,73,0.0,0.0,79,0.00,,,0.00,WeatherCatV1.11B39,2013-03-03 09:43:00,
2013-03-02 23:48:00,67.2,59.7,30.15,ESE,102,0.0,4.0,77,0.00,,,0.00,WeatherCatV1.11B39,2013-03-03 09:48:00,
2013-03-02 23:53:00,67.4,59.9,30.15,ESE,119,0.0,0.0,77,0.00,,,0.00,WeatherCatV1.11B39,2013-03-03 09:53:00,
2013-03-02 23:58:00,67.3,59.5,30.15,East,91,0.0,0.0,76,0.00,,,0.00,WeatherCatV1.11B39,2013-03-03 09:58:00,